Regional Weather Roundup
Issued by NWS

Home | Current Version | Previous Version | Text Only | Print | Product List | Glossary Off
Versions: 1 2 3 4 5 6 7 8 9 10 11 12 13 14 15 16 17 18 19 20 21 22 23 24 25 26 27 28 29 30 31 32 33 34 35 36 37 38 39 40 41 42 43 44 45 46 47 48 49 50

000
ASUS43 KOAX 011110
RWRNE

WEATHER ROUNDUP FOR NEBRASKA
NATIONAL WEATHER SERVICE OMAHA NE
500 AM CST SUN MAR 01 2015

NOTES: SATELLITE DATA IS BEING USED TO AUGMENT CLOUD COVER ABOVE
       12000 FEET.
       "FAIR" INDICATES FEW OR NO CLOUDS BELOW 12,000 FEET WITH NO
       SIGNIFICANT WEATHER AND/OR OBSTRUCTIONS TO VISIBILITY.

  * THESE STATIONS DO NOT REPORT WEATHER SUCH AS RAIN...SNOW OR FOG.

NEZ001>004-019>022-054>056-011200-
NEBRASKA PANHANDLE

CITY           SKY/WX    TMP DP  RH WIND       PRES   REMARKS
SCOTTSBLUFF    CLOUDY    19  10  68 N8        30.16R WCI   9
ALLIANCE       CLOUDY    18  11  74 N7        30.17R WCI   9
CHADRON        CLOUDY    18  11  74 CALM      30.22R
KIMBALL        PTCLDY    17  15  90 N3        30.07S
SIDNEY         PTCLDY    13  10  88 CALM      30.13R
$$

NEZ057>060-069>072-079>082-011200-
SOUTHWEST NEBRASKA

CITY           SKY/WX    TMP DP  RH WIND       PRES   REMARKS
NORTH PLATTE   CLOUDY    20  14  77 NW3       30.22R
IMPERIAL         N/A     16  11  80 CALM      30.18S
LEXINGTON      MOCLDY    18  15  88 CALM      30.24S
MCCOOK         CLOUDY    21  16  81 CALM      30.22R
OGALLALA       MOCLDY    18  14  85 N3        30.19R
$$

NEZ005>010-023>029-035>040-094-011200-
NORTH CENTRAL NEBRASKA

CITY           SKY/WX    TMP DP  RH WIND       PRES   REMARKS
VALENTINE      CLOUDY    18   9  68 W3        30.24S
AINSWORTH      CLOUDY    15   8  72 NW3       30.24R
BROKEN BOW     CLOUDY    18  12  77 W3        30.22R
O`NEILL        PTCLDY    14  11  87 N5        30.27R WCI   6
ORD            MOCLDY    15  10  80 CALM      30.25R
THEDFORD       CLOUDY    19  10  68 CALM      30.23R
$$

NEZ041-046>049-061>064-073>077-083>087-011200-
SOUTH CENTRAL NEBRASKA

CITY           SKY/WX    TMP DP  RH WIND       PRES   REMARKS
GRAND ISLAND   CLOUDY    17  13  84 W7        30.28F WCI   8
AURORA         CLOUDY    18  15  89 W6        30.28S WCI   9
HASTINGS       CLOUDY    16  13  88 CALM      30.25F
HEBRON         LGT SNOW  20  17  85 CALM      30.31F
HOLDREGE       CLOUDY    19  15  86 CALM      30.24R
KEARNEY *      CLOUDY    18  14  86 W6        30.25F WCI   9
YORK           CLOUDY    18  16  93 W6        30.29F WCI   9
$$

NEZ011>018-030>034-042>045-011200-
NORTHEAST NEBRASKA

CITY           SKY/WX    TMP DP  RH WIND       PRES   REMARKS
NORFOLK        PTCLDY    15  11  83 W5        30.28R WCI   8
ALBION         PTCLDY    16  11  81 NW6       30.26S WCI   8
BLAIR          MOCLDY    19  14  79 SW6       30.31R WCI  11
COLUMBUS *     PTCLDY    16   5  62 W5        30.30F WCI   9
FREMONT        PTCLDY    19  14  82 SW3       30.32R
TEKAMAH        PTCLDY    18  13  80 S7        30.33R WCI   9
WAYNE          PTCLDY    15  11  85 W5        30.30R WCI   8
$$

NEZ050>053-065>068-078-088>093-011200-
SOUTHEAST NEBRASKA

CITY           SKY/WX    TMP DP  RH WIND       PRES   REMARKS
LINCOLN        PTCLDY    18  13  80 CALM      30.34R
OMAHA EPPLEY   MOCLDY    20  13  74 W5        30.35R WCI  13
BEATRICE       CLOUDY    21  18  88 SW3       30.33R
FALLS CITY     LGT SNOW  21  17  84 CALM      30.35S FOG
NEBRASKA CITY  CLOUDY    21  19  93 CALM      30.33S
PLATTSMOUTH    CLOUDY    21  15  78 W5        30.33R WCI  14
$$

NEZ044-045-051>053-067-011200-
OMAHA AREA

CITY           SKY/WX    TMP DP  RH WIND       PRES   REMARKS
OMAHA EPPLEY   MOCLDY    20  13  74 W5        30.35R WCI  13
BLAIR          MOCLDY    19  14  79 SW6       30.31R WCI  11
FREMONT        PTCLDY    19  14  82 SW3       30.32R
MILLARD        MOCLDY    21  15  77 CALM      30.34R
OFFUTT AFB     MOCLDY    20  14  78 SW3       30.34R
PLATTSMOUTH    CLOUDY    21  15  78 W5        30.33R WCI  14
WAHOO          FAIR      17  12  79 S3        30.32S
$$


USA.gov is the U.S. government's official web portal to all federal, state and local government web resources and services.